| time (UTC) | temp C | wind direction | speed KPH | gust KPH | rain 1hr cm | rain 24hr cm | rain mn cm | humidity % | barometer mb |
| 20260502221552 | 11 | 355 | 0.0 | 3.2 | 0.00 | 0.15 | 0.15 | 80 | 1010.9 |
| 20260502220059 | 11 | 348 | 0.0 | 6.4 | 0.00 | 0.15 | 0.15 | 77 | 1010.9 |
| 20260502214553 | 12 | 117 | 0.0 | 4.8 | 0.00 | 0.15 | 0.15 | 74 | 1010.9 |
| 20260502213051 | 12 | 0 | 1.6 | 4.8 | 0.00 | 0.15 | 0.15 | 68 | 1010.8 |
| 20260502211549 | 13 | 74 | 0.0 | 4.8 | 0.00 | 0.15 | 0.15 | 64 | 1010.6 |
| 20260502210059 | 13 | 316 | 1.6 | 6.4 | 0.00 | 0.15 | 0.15 | 64 | 1010.6 |
| 20260502204551 | 13 | 0 | 1.6 | 9.7 | 0.00 | 0.15 | 0.15 | 65 | 1010.6 |
| 20260502203051 | 13 | 234 | 3.2 | 11.3 | 0.00 | 0.15 | 0.15 | 64 | 1010.7 |
| 20260502201547 | 13 | 213 | 1.6 | 11.3 | 0.00 | 0.15 | 0.15 | 63 | 1010.7 |
| 20260502200056 | 13 | 142 | 1.6 | 9.7 | 0.00 | 0.15 | 0.15 | 63 | 1010.6 |
| 20260502194550 | 13 | 145 | 1.6 | 6.4 | 0.00 | 0.15 | 0.15 | 62 | 1010.8 |
| 20260502193050 | 13 | 240 | 3.2 | 12.9 | 0.00 | 0.15 | 0.15 | 63 | 1011.0 |
| 20260502191551 | 14 | 138 | 3.2 | 12.9 | 0.00 | 0.15 | 0.15 | 63 | 1011.1 |
| 20260502184556 | 13 | 263 | 1.6 | 14.5 | 0.00 | 0.15 | 0.15 | 61 | 1011.1 |
| 20260502183044 | 13 | 163 | 1.6 | 8.0 | 0.00 | 0.15 | 0.15 | 69 | 1011.2 |
| 20260502181549 | 13 | 141 | 1.6 | 6.4 | 0.00 | 0.15 | 0.15 | 67 | 1011.4 |
| 20260502180328 | 13 | 136 | 1.6 | 6.4 | 0.00 | 0.15 | 0.15 | 67 | 1011.5 |
| 20260502163049 | 12 | 242 | 1.6 | 4.8 | 0.00 | 0.15 | 0.15 | 71 | 1012.1 |
| 20260502161548 | 12 | 140 | 1.6 | 6.4 | 0.00 | 0.15 | 0.15 | 73 | 1012.6 |
| 20260502151559 | 10 | 5 | 0.0 | 3.2 | 0.00 | 0.15 | 0.15 | 82 | 1012.6 |
| 20260502123053 | 7 | 108 | 0.0 | 1.6 | 0.10 | 0.10 | 0.10 | 87 | 1013.3 |
| 20260502121603 | 7 | 0 | 0.0 | 3.2 | 0.08 | 0.08 | 0.08 | 87 | 1013.3 |
| 20260502114554 | 7 | 0 | 0.0 | 1.6 | 0.03 | 0.03 | 0.03 | 85 | 1013.2 |
| 20260502113054 | 7 | 0 | 0.0 | 3.2 | 0.00 | 0.00 | 0.00 | 85 | 1012.6 |
| 20260502111558 | 6 | 0 | 0.0 | 1.6 | 0.00 | 0.00 | 0.00 | 86 | 1012.2 |
| 20260502110058 | 6 | 0 | 0.0 | 3.2 | 0.00 | 0.00 | 0.00 | 87 | 1012.2 |
| 20260502104551 | 6 | 108 | 0.0 | 1.6 | 0.00 | 0.00 | 0.00 | 87 | 1012.1 |
| 20260502103104 | 6 | 0 | 0.0 | 3.2 | 0.00 | 0.00 | 0.00 | 86 | 1012.1 |
| 20260502101616 | 6 | 0 | 1.6 | 4.8 | 0.00 | 0.00 | 0.00 | 85 | 1012.0 |
| 20260502100348 | 6 | 0 | 0.0 | 0.0 | 0.00 | 0.00 | 0.00 | 85 | 1012.4 |
| 20260502070053 | 6 | 0 | 0.0 | 0.0 | 0.00 | 0.00 | 0.00 | 80 | 1012.2 |
| 20260502064548 | 6 | 0 | 0.0 | 0.0 | 0.00 | 0.00 | 0.00 | 79 | 1011.8 |
| 20260502063057 | 6 | 0 | 0.0 | 0.0 | 0.00 | 0.00 | 0.00 | 77 | 1011.8 |
| 20260502061551 | 6 | 0 | 0.0 | 0.0 | 0.00 | 0.00 | 0.00 | 76 | 1011.9 |
| 20260502060104 | 7 | 0 | 0.0 | 0.0 | 0.00 | 0.00 | 0.00 | 74 | 1012.1 |
| 20260502054551 | 7 | 0 | 0.0 | 1.6 | 0.00 | 0.00 | 0.00 | 73 | 1012.2 |
| 20260502053059 | 7 | 0 | 0.0 | 1.6 | 0.00 | 0.00 | 0.00 | 72 | 1012.2 |
| 20260502051600 | 7 | 108 | 0.0 | 3.2 | 0.00 | 0.00 | 0.00 | 72 | 1012.2 |
| 20260502050059 | 7 | 0 | 0.0 | 1.6 | 0.00 | 0.00 | 0.00 | 76 | 1012.5 |
| 20260502044549 | 6 | 108 | 0.0 | 1.6 | 0.00 | 0.00 | 0.00 | 76 | 1012.7 |
| 20260502043052 | 6 | 0 | 0.0 | 0.0 | 0.00 | 0.00 | 0.00 | 78 | 1012.5 |
| 20260502041552 | 6 | 0 | 0.0 | 0.0 | 0.00 | 0.00 | 0.00 | 78 | 1012.4 |
| 20260502040049 | 6 | 0 | 0.0 | 1.6 | 0.00 | 0.00 | 0.00 | 76 | 1012.5 |
| 20260502034553 | 6 | 0 | 0.0 | 0.0 | 0.00 | 0.00 | 0.00 | 75 | 1012.4 |
| 20260502033054 | 6 | 0 | 0.0 | 1.6 | 0.00 | 0.00 | 0.00 | 73 | 1012.3 |
| 20260502031549 | 6 | 0 | 0.0 | 1.6 | 0.00 | 0.00 | 0.00 | 71 | 1012.3 |
| 20260502030051 | 6 | 0 | 0.0 | 1.6 | 0.00 | 0.00 | 0.00 | 71 | 1012.3 |
| 20260502024553 | 7 | 0 | 0.0 | 1.6 | 0.00 | 0.00 | 0.00 | 69 | 1012.2 |
| 20260502023057 | 7 | 0 | 0.0 | 0.0 | 0.00 | 0.00 | 0.00 | 66 | 1012.2 |
| 20260502021550 | 7 | 0 | 0.0 | 1.6 | 0.00 | 0.00 | 0.00 | 63 | 1012.1 |
| 20260502020047 | 8 | 0 | 0.0 | 0.0 | 0.00 | 0.00 | 0.00 | 61 | 1012.2 |
| 20260502014554 | 8 | 0 | 0.0 | 0.0 | 0.00 | 0.00 | 0.00 | 59 | 1012.2 |
| 20260502013056 | 9 | 0 | 0.0 | 0.0 | 0.00 | 0.00 | 0.00 | 55 | 1012.1 |
| 20260502011604 | 10 | 0 | 0.0 | 1.6 | 0.00 | 0.00 | 0.00 | 52 | 1012.1 |
| 20260502010048 | 10 | 0 | 0.0 | 0.0 | 0.00 | 0.00 | 0.00 | 50 | 1012.0 |
| 20260502004557 | 11 | 0 | 0.0 | 0.0 | 0.00 | 0.00 | 0.00 | 47 | 1011.8 |
| 20260502003049 | 12 | 0 | 0.0 | 1.6 | 0.00 | 0.00 | 0.00 | 45 | 1011.7 |
| 20260502001549 | 12 | 0 | 0.0 | 0.0 | 0.00 | 0.00 | 0.00 | 42 | 1011.4 |
| 20260502000107 | 13 | 0 | 0.0 | 0.0 | 0.00 | 0.00 | 0.00 | 39 | 1011.1 |
| 20260501234546 | 13 | 0 | 0.0 | 3.2 | 0.00 | 0.00 | 0.00 | 38 | 1010.8 |
| 20260501233050 | 14 | 86 | 0.0 | 3.2 | 0.00 | 0.00 | 0.00 | 36 | 1010.5 |
| 20260501231601 | 15 | 53 | 0.0 | 6.4 | 0.00 | 0.00 | 0.00 | 36 | 1010.4 |
| 20260501230051 | 15 | 0 | 1.6 | 6.4 | 0.00 | 0.00 | 0.00 | 34 | 1010.3 |
| 20260501224558 | 15 | 355 | 1.6 | 8.0 | 0.00 | 0.00 | 0.00 | 32 | 1010.1 |
| 20260501223044 | 16 | 27 | 0.0 | 6.4 | 0.00 | 0.00 | 0.00 | 31 | 1010.0 |